TimeCST,TemperatureF,Dew PointF,Humidity,Sea Level PressureIn,VisibilityMPH,Wind Direction,Wind SpeedMPH,Gust SpeedMPH,PrecipitationIn,Events,Conditions,WindDirDegrees,DateUTC
12:15 AM,33.1,31.5,94,30.12,5.0,South,4.6,-,N/A,,Clear,180,2012-11-09 06:15:00
12:35 AM,33.3,31.6,94,30.12,5.0,South,5.8,-,N/A,,Clear,180,2012-11-09 06:35:00
12:55 AM,33.4,31.8,94,30.12,5.0,South,4.6,-,N/A,,Clear,180,2012-11-09 06:55:00
1:15 AM,33.1,31.3,93,30.13,4.0,South,5.8,-,N/A,,Clear,190,2012-11-09 07:15:00
1:35 AM,32.0,30.7,95,30.13,4.0,South,6.9,-,N/A,,Clear,170,2012-11-09 07:35:00
1:55 AM,33.1,31.8,95,30.13,4.0,South,3.5,-,N/A,,Clear,180,2012-11-09 07:55:00
2:15 AM,33.8,32.0,93,30.13,4.0,South,4.6,-,N/A,,Clear,170,2012-11-09 08:15:00
2:35 AM,33.8,32.0,93,30.12,4.0,Calm,Calm,-,N/A,,Clear,0,2012-11-09 08:35:00
2:55 AM,34.2,32.2,92,30.12,4.0,South,3.5,-,N/A,,Clear,170,2012-11-09 08:55:00
3:15 AM,34.0,32.2,93,30.12,4.0,South,4.6,-,N/A,,Clear,170,2012-11-09 09:15:00
3:35 AM,33.1,31.8,95,30.11,4.0,SSE,3.5,-,N/A,,Clear,160,2012-11-09 09:35:00
3:55 AM,34.7,32.9,93,30.11,4.0,Calm,Calm,-,N/A,,Clear,0,2012-11-09 09:55:00
4:15 AM,34.0,32.2,93,30.11,3.0,South,3.5,-,N/A,,Clear,170,2012-11-09 10:15:00
4:35 AM,33.8,32.0,93,30.11,3.0,SSE,3.5,-,N/A,,Clear,160,2012-11-09 10:35:00
4:55 AM,33.8,32.2,94,30.11,3.0,SSE,4.6,-,N/A,,Clear,160,2012-11-09 10:55:00
5:15 AM,34.5,32.7,93,30.10,4.0,South,4.6,-,N/A,,Clear,170,2012-11-09 11:15:00
5:35 AM,34.0,32.0,92,30.10,4.0,South,4.6,-,N/A,,Clear,180,2012-11-09 11:35:00
5:55 AM,34.0,32.2,93,30.10,4.0,South,5.8,-,N/A,,Clear,190,2012-11-09 11:55:00
6:15 AM,34.0,32.2,93,30.10,3.0,South,4.6,-,N/A,,Clear,180,2012-11-09 12:15:00
6:35 AM,33.8,32.0,93,30.10,3.0,South,4.6,-,N/A,,Clear,180,2012-11-09 12:35:00
6:55 AM,33.8,32.0,93,30.11,2.5,SSE,4.6,-,N/A,,Clear,160,2012-11-09 12:55:00
7:15 AM,34.9,32.9,92,30.11,2.5,Calm,Calm,-,N/A,,Clear,0,2012-11-09 13:15:00
7:35 AM,36.3,33.4,89,30.12,3.0,South,5.8,-,N/A,,Clear,190,2012-11-09 13:35:00
7:55 AM,38.5,35.6,89,30.11,4.0,South,10.4,-,N/A,,Clear,170,2012-11-09 13:55:00
8:15 AM,40.3,36.3,86,30.11,4.0,South,9.2,-,N/A,,Clear,190,2012-11-09 14:15:00
8:35 AM,41.7,37.0,83,30.10,5.0,South,9.2,-,N/A,,Haze,190,2012-11-09 14:35:00
9:15 AM,46.0,38.5,75,30.09,7.0,SSW,10.4,-,N/A,,Scattered Clouds,200,2012-11-09 15:15:00
9:35 AM,47.3,39.6,74,30.08,7.0,WSW,9.2,-,N/A,,Scattered Clouds,240,2012-11-09 15:35:00
9:55 AM,48.4,39.2,71,30.08,7.0,SSW,10.4,-,N/A,,Mostly Cloudy,200,2012-11-09 15:55:00
10:15 AM,49.1,39.9,71,30.08,7.0,South,8.1,-,N/A,,Mostly Cloudy,190,2012-11-09 16:15:00
10:35 AM,51.3,40.5,67,30.08,10.0,South,9.2,-,N/A,,Mostly Cloudy,180,2012-11-09 16:35:00
10:55 AM,53.2,41.0,63,30.07,10.0,SSW,13.8,17.3,N/A,,Clear,200,2012-11-09 16:55:00
11:15 AM,54.5,41.2,61,30.05,10.0,SSW,13.8,-,N/A,,Clear,200,2012-11-09 17:15:00
11:35 AM,55.2,41.5,60,30.05,10.0,SSW,12.7,-,N/A,,Clear,210,2012-11-09 17:35:00
11:55 AM,56.1,41.7,58,30.04,10.0,SSW,12.7,17.3,N/A,,Scattered Clouds,210,2012-11-09 17:55:00
12:15 PM,56.3,42.1,59,30.04,10.0,SSW,11.5,16.1,N/A,,Mostly Cloudy,200,2012-11-09 18:15:00
12:35 PM,55.4,42.3,61,30.04,10.0,SSW,6.9,-,N/A,,Overcast,200,2012-11-09 18:35:00
12:55 PM,55.0,41.9,61,30.04,10.0,SW,6.9,-,N/A,,Overcast,220,2012-11-09 18:55:00
1:15 PM,56.7,42.6,59,30.02,10.0,South,9.2,-,N/A,,Overcast,170,2012-11-09 19:15:00
1:35 PM,56.7,42.6,59,30.01,10.0,South,5.8,-,N/A,,Overcast,170,2012-11-09 19:35:00
1:55 PM,56.8,43.0,60,30.01,10.0,South,10.4,-,N/A,,Overcast,170,2012-11-09 19:55:00
2:15 PM,56.7,42.8,60,30.00,10.0,South,9.2,-,N/A,,Overcast,180,2012-11-09 20:15:00
2:35 PM,57.2,43.3,60,29.99,10.0,South,6.9,-,N/A,,Overcast,180,2012-11-09 20:35:00
2:55 PM,56.8,43.0,60,29.99,10.0,SSE,6.9,-,N/A,,Overcast,160,2012-11-09 20:55:00
3:15 PM,57.2,43.7,61,29.99,10.0,SSE,9.2,-,N/A,,Overcast,150,2012-11-09 21:15:00
3:35 PM,57.9,43.9,60,29.99,10.0,SSE,10.4,-,N/A,,Overcast,160,2012-11-09 21:35:00
3:55 PM,58.1,44.1,60,29.99,10.0,SSE,6.9,-,N/A,,Mostly Cloudy,160,2012-11-09 21:55:00
4:15 PM,56.8,44.1,62,29.99,10.0,SSE,9.2,-,N/A,,Overcast,160,2012-11-09 22:15:00
4:35 PM,56.3,44.1,64,29.98,10.0,South,8.1,-,N/A,,Overcast,170,2012-11-09 22:35:00
4:55 PM,55.4,44.6,67,29.99,10.0,SSE,4.6,-,N/A,,Mostly Cloudy,160,2012-11-09 22:55:00
5:15 PM,54.0,43.7,68,30.00,10.0,Calm,Calm,-,N/A,,Scattered Clouds,0,2012-11-09 23:15:00
5:35 PM,52.5,43.9,72,30.00,10.0,SSE,3.5,-,N/A,,Clear,150,2012-11-09 23:35:00
5:55 PM,52.7,43.7,71,30.00,10.0,SE,4.6,-,N/A,,Clear,130,2012-11-09 23:55:00
6:15 PM,52.0,43.7,73,30.00,10.0,SSE,3.5,-,N/A,,Mostly Cloudy,150,2012-11-10 00:15:00
6:35 PM,52.2,44.1,74,29.99,10.0,SE,4.6,-,N/A,,Mostly Cloudy,140,2012-11-10 00:35:00
6:55 PM,52.5,44.1,73,29.99,10.0,SE,4.6,-,N/A,,Mostly Cloudy,130,2012-11-10 00:55:00
7:15 PM,54.0,44.8,71,29.99,10.0,SE,5.8,-,N/A,,Overcast,140,2012-11-10 01:15:00
7:35 PM,54.9,44.8,69,29.99,10.0,SE,5.8,-,N/A,,Overcast,140,2012-11-10 01:35:00
7:55 PM,55.4,44.8,67,29.99,10.0,SE,5.8,-,N/A,,Overcast,140,2012-11-10 01:55:00
8:15 PM,55.6,44.8,67,29.99,10.0,SSE,4.6,-,N/A,,Overcast,150,2012-11-10 02:15:00
8:35 PM,55.2,44.8,68,30.00,10.0,SSE,5.8,-,N/A,,Overcast,150,2012-11-10 02:35:00
8:55 PM,55.4,44.6,67,30.00,10.0,SSE,6.9,-,N/A,,Overcast,160,2012-11-10 02:55:00
9:15 PM,55.4,44.1,66,30.00,10.0,East,8.1,-,N/A,,Overcast,80,2012-11-10 03:15:00
9:35 PM,54.7,43.7,66,30.00,10.0,SE,6.9,-,N/A,,Overcast,140,2012-11-10 03:35:00
9:55 PM,54.5,43.7,67,30.00,10.0,SE,5.8,-,N/A,,Overcast,140,2012-11-10 03:55:00
10:15 PM,53.8,43.7,69,30.00,10.0,ESE,6.9,-,N/A,,Overcast,120,2012-11-10 04:15:00
10:35 PM,54.5,43.7,67,30.00,10.0,SSE,6.9,-,N/A,,Overcast,160,2012-11-10 04:35:00
10:55 PM,54.1,43.7,68,30.00,10.0,SSE,4.6,-,N/A,,Overcast,160,2012-11-10 04:55:00
11:15 PM,52.9,43.0,69,29.99,10.0,SSE,6.9,-,N/A,,Mostly Cloudy,160,2012-11-10 05:15:00
11:55 PM,51.6,42.8,72,30.00,10.0,SSE,5.8,-,N/A,,Scattered Clouds,160,2012-11-10 05:55:00